Total_Precipitation_Accumulation
0.92 1.16 1.63 1.58 1.36 1.36 1.40 1.36 1.20 1.07 0.98 1.00 1.00 0.93 0.84 0.74 0.67 0.64 0.61 0.60 0.60 0.66 0.74 0.81 0.83 0.80 0.88 0.98 1.09 1.16 1.19 1.29 1.43 1.67 1.83 1.83 1.86 1.91 2.06 2.13 2.08 1.61 1.56
0.65 0.94 1.38 1.39 1.18 1.19 1.20 1.20 1.10 0.97 0.93 0.94 1.00 0.99 0.92 0.86 0.75 0.65 0.62 0.62 0.67 0.70 0.70 0.71 0.78 0.75 0.80 0.91 1.03 1.09 1.16 1.34 1.77 2.10 2.25 2.12 2.11 2.13 2.18 2.12 2.09 1.66 1.49
0.62 0.78 0.99 1.21 1.12 1.09 1.03 1.03 0.99 0.92 0.88 0.87 0.91 0.94 0.90 0.84 0.72 0.64 0.64 0.68 0.72 0.70 0.65 0.74 0.79 0.74 0.81 0.92 1.00 1.01 1.19 1.50 2.12 2.72 2.85 2.35 1.94 2.15 2.20 2.13 1.89 1.49 1.32
0.55 0.75 0.78 1.00 1.00 1.03 1.00 0.99 0.97 0.89 0.78 0.78 0.77 0.77 0.75 0.76 0.69 0.62 0.62 0.66 0.68 0.65 0.67 0.76 0.80 0.81 0.80 0.85 0.94 1.14 1.39 1.62 2.17 2.66 2.69 1.96 1.53 1.64 1.87 1.67 1.48 1.30 1.11
0.51 0.63 0.79 0.91 0.87 0.92 0.88 0.87 0.89 0.87 0.80 0.73 0.69 0.73 0.72 0.69 0.66 0.62 0.63 0.65 0.68 0.69 0.69 0.73 0.83 0.87 0.85 0.85 0.97 1.24 1.56 1.89 2.22 2.37 1.95 2.13 1.99 1.65 1.55 1.40 1.35 1.11 0.90
0.39 0.43 0.65 0.85 0.81 0.89 0.82 0.77 0.79 0.79 0.79 0.73 0.71 0.73 0.78 0.79 0.78 0.68 0.61 0.64 0.71 0.76 0.76 0.79 0.89 0.92 0.85 0.85 0.98 1.29 1.60 2.01 2.09 1.54 1.20 1.54 1.54 1.46 1.41 1.37 1.24 1.05 0.88
0.36 0.35 0.49 0.78 0.76 0.79 0.77 0.74 0.72 0.73 0.77 0.71 0.72 0.69 0.76 0.81 0.78 0.73 0.71 0.72 0.71 0.76 0.77 0.82 0.89 0.92 0.93 0.95 1.03 1.29 1.68 1.99 1.80 1.23 1.02 1.27 1.19 1.23 1.35 1.36 1.29 1.12 0.91
0.43 0.35 0.44 0.73 0.81 0.79 0.77 0.73 0.70 0.69 0.70 0.69 0.68 0.66 0.71 0.76 0.77 0.78 0.80 0.82 0.75 0.77 0.81 0.82 0.84 0.84 0.90 1.00 1.14 1.28 1.64 1.65 1.30 1.10 1.00 1.08 0.87 1.14 1.30 1.23 1.17 1.06 0.94
0.73 0.60 0.53 0.62 0.72 0.75 0.81 0.80 0.72 0.70 0.70 0.69 0.72 0.72 0.69 0.71 0.73 0.74 0.86 0.88 0.82 0.83 0.85 0.88 0.87 0.89 0.95 1.05 1.17 1.33 1.63 1.74 1.46 1.33 1.07 1.03 0.83 1.15 1.39 1.19 1.03 0.94 0.95
1.34 1.13 0.86 0.70 0.82 0.76 0.80 0.83 0.81 0.68 0.67 0.71 0.78 0.76 0.77 0.85 0.89 0.97 0.95 0.92 0.94 1.02 1.05 1.08 1.04 1.01 1.13 1.22 1.31 1.47 1.66 1.60 1.42 1.62 1.41 1.06 0.96 1.27 1.50 1.51 1.30 1.10 1.02
1.69 1.52 1.35 1.14 0.92 0.94 0.92 0.82 0.94 0.85 0.84 0.97 1.15 1.13 1.18 1.48 1.45 1.53 1.24 1.17 1.26 1.44 1.50 1.54 1.52 1.45 1.40 1.36 1.53 1.73 1.61 1.52 1.77 1.93 1.62 1.17 1.24 1.66 1.81 1.88 1.69 1.51 1.38
1.68 1.50 1.50 1.44 1.16 1.10 1.07 1.28 1.62 1.43 1.42 1.49 1.76 1.65 1.92 2.03 1.91 1.41 1.47 1.64 1.75 2.09 2.22 2.26 2.29 2.07 1.79 1.66 1.83 1.85 1.63 1.71 1.98 1.73 1.43 1.26 1.42 1.84 2.12 2.15 1.96 1.74 1.65
1.88 1.74 1.47 1.58 1.46 1.48 1.65 1.72 1.87 1.95 1.91 1.88 2.01 2.04 2.28 2.09 1.78 1.69 2.01 2.37 2.52 2.68 2.86 2.91 2.82 2.36 2.31 2.49 2.48 2.26 2.15 2.00 2.06 1.77 1.42 1.47 1.62 1.96 2.25 2.32 2.13 1.98 1.81
2.15 2.04 1.92 1.90 1.92 1.94 1.98 1.92 1.79 1.62 1.63 1.76 1.94 1.97 2.18 2.28 2.29 2.27 2.44 2.55 2.76 3.10 3.48 3.42 3.36 3.11 3.11 2.93 2.70 2.67 2.48 2.16 2.33 2.41 1.93 1.75 1.85 2.20 2.41 2.41 2.25 2.14 2.13
2.84 2.69 2.68 2.74 2.55 2.35 2.30 1.97 1.60 1.51 1.41 1.46 1.60 1.75 1.79 2.11 2.39 2.43 2.29 2.32 2.30 2.52 2.94 3.48 3.44 3.59 3.56 3.21 2.75 2.57 2.60 2.46 2.42 2.37 2.01 2.08 2.28 2.33 2.37 2.35 2.30 2.26 2.29
3.82 3.64 3.44 3.49 3.03 2.68 2.44 2.08 1.81 1.55 1.56 1.48 1.39 1.44 1.66 1.91 2.19 2.17 2.13 2.31 2.37 2.31 2.47 2.91 3.10 3.44 3.42 3.07 2.56 2.36 2.33 2.38 2.26 2.25 2.00 2.04 2.18 2.06 2.08 2.35 2.58 2.65 2.56
4.93 4.53 3.94 3.66 3.33 3.06 2.78 2.29 1.90 1.72 1.49 1.52 1.50 1.42 1.49 1.63 1.87 1.88 1.97 1.98 2.05 1.98 2.06 2.26 2.50 2.78 2.75 2.61 2.49 2.41 2.32 2.22 2.06 2.07 2.13 2.07 1.81 1.89 2.00 2.15 2.39 2.53 2.67
5.72 5.13 4.41 3.70 3.71 3.56 3.25 2.58 2.10 1.81 1.66 1.59 1.53 1.40 1.31 1.35 1.35 1.48 1.53 1.53 1.54 1.42 1.55 1.87 1.96 2.20 2.42 2.50 2.58 2.37 2.26 2.31 2.10 2.06 2.04 2.06 2.07 1.79 2.04 2.10 2.15 2.19 2.51
5.89 5.69 5.05 4.85 4.61 3.94 3.20 2.59 2.18 1.89 1.76 1.59 1.51 1.44 1.35 1.25 1.21 1.31 1.42 1.50 1.27 1.25 1.31 1.23 1.59 1.80 2.05 2.18 1.90 2.02 1.89 1.95 1.86 1.64 1.66 1.58 1.81 1.81 1.94 1.91 2.00 1.98 2.22
4.83 4.74 4.68 4.78 4.31 3.69 3.06 2.56 2.26 2.00 1.71 1.53 1.48 1.45 1.35 1.29 1.27 1.40 1.28 1.29 1.17 1.33 1.48 1.55 1.80 1.74 1.68 1.78 1.52 1.74 1.63 1.49 1.52 1.45 1.35 1.41 1.50 1.41 1.64 1.85 1.92 1.67 1.88
3.25 3.36 3.68 3.90 3.61 3.12 2.70 2.19 1.99 1.93 1.74 1.54 1.41 1.30 1.35 1.28 1.40 1.51 1.29 1.57 1.41 1.38 1.45 1.48 1.61 1.61 1.46 1.42 1.78 1.96 1.57 1.21 1.23 1.11 1.10 1.29 1.36 1.41 1.70 1.94 1.99 1.93 1.69
2.34 2.66 3.03 3.28 3.12 2.59 2.36 2.14 2.00 1.93 1.80 1.74 1.59 1.52 1.35 1.31 1.36 1.28 1.50 1.36 1.40 1.52 1.56 1.63 1.72 1.73 1.54 1.47 1.78 2.14 1.88 1.81 1.61 0.93 1.05 1.19 1.28 1.51 1.60 1.61 1.77 1.98 1.73
2.06 2.21 2.27 2.54 2.74 2.49 2.36 2.27 2.16 2.07 1.88 1.92 1.83 1.66 1.34 1.22 1.25 1.30 1.31 1.33 1.52 1.35 1.61 1.80 1.74 1.80 1.78 1.62 1.62 1.92 1.99 1.96 1.68 1.29 1.05 1.03 1.20 1.53 1.58 1.64 1.55 1.70 1.83
1.47 1.75 2.00 2.26 2.44 2.38 2.26 2.05 1.87 1.69 1.60 1.60 1.63 1.64 1.50 1.37 1.21 1.21 1.21 1.37 1.53 1.36 1.70 1.41 1.46 1.70 1.84 1.68 1.61 1.47 1.50 1.67 1.80 1.72 1.44 1.16 1.16 1.32 1.41 1.33 1.37 1.57 1.70
1.04 1.44 1.86 2.21 2.44 2.33 2.04 1.87 1.86 1.75 1.70 1.63 1.56 1.74 1.62 1.54 1.34 1.16 1.23 1.37 1.43 1.35 1.46 1.49 1.73 1.64 1.61 1.60 1.62 1.65 1.70 1.59 1.40 1.51 1.59 1.53 1.41 1.14 1.04 1.09 1.21 1.39 1.44
0.85 1.11 1.45 1.78 2.02 2.04 1.88 1.78 1.82 1.85 1.82 1.68 1.49 1.49 1.41 1.42 1.37 1.28 1.34 1.40 1.35 1.30 1.37 1.40 1.53 1.55 1.64 1.72 1.59 1.49 1.60 1.51 1.40 1.46 1.32 1.31 1.38 1.06 0.92 0.93 1.04 1.23 1.32